Temperature
18 18 18 17 17 17 17 17 17 17 17 17 17 17 17 17 17 17 18 18 17 17 17 17 17 17 17 17 17 17 17 17 18 18 17 17 17 17 17 17 17 17 16
17 17 17 17 17 17 17 17 17 17 17 17 17 17 17 17 17 17 17 17 17 17 17 17 17 17 17 17 17 17 17 17 17 17 17 17 17 17 17 17 17 17 16
17 17 17 17 17 16 17 17 17 17 17 17 17 17 17 17 17 17 17 17 17 17 17 17 17 17 17 17 17 17 17 17 17 17 17 17 17 17 17 17 17 17 17
17 17 17 16 16 16 16 16 16 16 16 16 16 16 16 17 17 17 17 17 17 17 17 17 17 17 17 17 17 17 17 17 17 17 17 17 17 17 17 17 17 17 17
16 16 16 16 16 16 16 16 16 16 16 16 16 16 16 16 16 17 17 17 17 17 17 17 17 17 17 17 17 17 17 17 17 17 17 17 17 17 17 17 17 17 17
16 16 16 16 16 16 16 16 15 15 15 15 15 15 16 16 16 17 17 17 17 17 17 17 17 17 17 17 17 17 17 17 17 17 17 17 17 17 17 17 17 17 17
16 16 15 15 15 15 15 15 15 15 15 15 15 15 15 16 16 16 16 17 17 17 17 17 17 17 17 17 17 17 17 17 17 17 17 17 17 17 17 17 17 17 17
15 15 15 15 15 14 14 14 14 14 14 14 14 14 14 15 16 16 16 16 16 16 16 16 17 17 17 17 17 17 17 17 17 17 17 17 17 17 17 17 17 17 17
15 14 14 14 14 14 14 14 14 14 14 14 13 13 13 14 14 15 16 16 16 16 16 16 16 17 17 17 17 17 17 17 17 17 17 17 17 17 17 17 17 17 17
14 14 14 14 13 13 13 13 13 13 13 13 13 13 13 13 13 14 15 15 15 15 16 16 16 17 17 17 17 17 17 17 17 17 17 17 17 17 17 17 17 17 17
13 13 13 13 13 13 13 13 13 13 13 13 13 13 13 13 13 13 13 14 15 15 15 16 16 16 17 17 17 17 17 17 17 17 17 17 17 17 17 17 17 17 17
13 13 13 13 12 12 12 12 12 12 12 12 12 12 12 13 13 13 13 14 14 15 15 15 16 16 16 17 17 17 17 17 17 17 17 17 17 17 17 17 17 17 16
12 12 12 12 12 12 12 12 12 12 12 12 12 12 12 12 12 12 12 13 13 14 15 15 16 16 16 17 17 17 17 17 17 17 17 17 17 16 16 16 16 16 16
11 11 11 11 11 11 11 11 11 12 12 12 12 12 12 12 12 12 12 12 13 13 14 15 15 16 16 16 17 17 17 17 16 16 16 16 16 16 16 16 16 16 16
11 10 10 10 10 10 10 11 11 11 11 11 11 11 11 12 12 12 12 12 12 12 13 14 15 15 16 16 16 16 16 16 16 16 16 16 16 16 16 16 16 16 16
10 10 10 10 10 10 10 10 10 10 11 11 11 11 11 11 11 11 11 12 12 12 12 13 14 15 15 15 16 16 16 16 16 16 16 16 16 16 16 16 16 16 16
9 9 9 9 9 9 9 9 9 10 10 10 10 10 11 11 11 11 11 11 11 11 12 12 13 14 14 15 15 15 16 16 16 16 16 16 16 16 16 16 16 16 16
9 9 9 9 9 9 9 9 9 9 9 9 10 10 10 10 10 11 11 11 11 11 11 12 12 13 13 14 14 15 15 15 15 15 15 15 15 16 16 16 16 16 16
9 9 8 8 8 8 8 8 8 8 9 9 9 9 10 10 10 10 10 10 11 11 11 11 12 12 12 13 13 14 14 14 15 15 15 15 15 15 15 16 16 16 16
8 8 8 8 8 8 8 8 8 8 8 8 8 9 9 9 9 10 10 10 10 10 10 11 11 11 12 12 12 13 13 13 14 14 14 15 15 15 15 15 15 15 15
8 8 8 8 8 8 8 8 8 8 8 8 8 8 8 9 9 9 9 10 10 10 10 10 10 11 11 11 12 12 12 12 13 13 13 14 14 14 15 15 15 15 15
8 8 8 8 8 8 8 8 7 7 8 8 8 8 8 8 8 9 9 9 9 10 10 10 10 10 11 11 11 11 12 12 11 12 12 13 13 14 14 14 15 15 15
8 8 8 8 8 8 8 7 7 7 7 7 7 8 8 8 8 8 8 9 9 9 9 10 10 10 11 11 11 11 11 11 12 12 12 12 12 13 13 14 14 14 14
8 8 8 8 8 8 8 7 7 7 7 7 7 7 7 7 7 8 8 8 9 9 9 9 9 10 10 10 11 11 11 11 11 11 12 12 12 12 12 13 13 13 13
8 8 8 8 8 8 7 7 7 7 7 7 7 7 7 7 7 7 7 7 8 8 9 9 9 9 10 10 10 10 10 11 11 11 11 11 11 12 12 12 12 13 13
8 8 8 8 7 7 7 7 7 7 7 7 7 7 7 7 7 7 7 7 8 8 8 9 9 9 9 9 10 10 10 10 10 10 11 11 11 11 11 11 12 12 12
Wind_Speed
4 5 5 5 7 8 7 6 7 8 9 11 12 12 12 13 14 13 13 17 19 20 21 22 24 25 25 24 24 23 23 22 22 21 20 19 19 18 18 17 16 16 15
5 4 4 4 4 5 6 6 7 7 7 7 9 11 12 14 14 14 14 16 19 20 22 24 25 26 26 26 26 25 25 24 23 23 22 21 20 20 19 18 18 17 17
4 3 3 3 4 5 5 5 6 5 5 7 9 10 10 12 13 14 15 15 16 19 22 24 24 26 27 27 28 27 27 26 25 25 24 23 22 21 21 20 19 18 18
3 2 1 2 4 3 3 3 4 4 5 6 7 8 8 9 12 13 14 15 15 16 18 23 24 26 26 27 28 28 27 27 26 26 25 25 24 23 23 22 21 21 20
2 2 1 2 2 2 2 3 2 3 4 5 7 7 8 9 10 11 11 13 15 16 16 19 23 25 27 27 28 29 28 28 27 27 27 26 26 25 24 24 23 22 22
2 2 1 2 1 1 2 2 3 3 4 5 7 8 7 9 8 9 11 10 13 16 17 18 18 20 26 27 28 29 29 28 28 28 28 28 27 26 26 25 25 24 23
2 2 2 2 2 2 3 3 2 3 3 2 3 4 5 8 10 9 9 9 11 13 16 17 17 17 17 24 29 29 28 27 28 29 29 29 28 27 27 26 26 25 24
3 3 3 3 3 2 3 3 2 1 2 2 2 2 3 3 5 8 8 10 11 9 11 15 17 17 17 18 21 28 29 29 28 28 29 29 29 28 28 27 26 26 25
4 4 4 4 4 3 4 4 3 3 2 2 2 2 3 3 3 3 6 8 8 8 10 9 14 16 17 17 19 24 28 29 29 28 29 29 29 28 28 28 27 27 26
4 4 4 4 4 4 5 5 4 3 3 3 2 3 4 3 3 3 3 4 6 7 9 9 10 13 16 17 19 21 25 27 28 28 29 29 29 29 28 28 28 27 27
4 4 4 3 4 4 5 5 4 4 4 4 3 2 3 4 5 4 4 3 3 5 6 7 7 8 14 17 17 20 23 25 27 28 29 28 28 29 28 28 28 27 27
4 4 4 3 4 4 5 5 5 6 5 5 4 3 3 3 3 3 4 4 4 3 4 5 6 6 9 13 17 20 22 23 24 26 27 27 27 27 26 27 26 26 26
3 5 4 4 4 5 5 5 5 6 6 6 6 5 4 4 3 3 4 4 3 2 2 3 4 4 6 10 13 18 20 22 22 23 23 23 24 24 25 25 25 24 24
5 5 5 5 5 5 5 5 5 6 5 6 7 6 5 5 4 4 3 3 3 3 2 3 1 2 3 6 10 14 14 18 19 19 19 20 20 21 21 22 22 22 22
5 5 5 6 6 6 6 5 5 6 6 6 7 7 6 5 5 5 4 4 3 3 3 2 1 0 1 3 5 8 9 14 16 17 17 17 17 17 18 18 18 18 18
5 6 6 6 7 7 6 5 6 6 7 7 6 7 7 6 5 5 5 4 4 4 3 2 1 1 1 1 3 5 6 11 14 15 15 14 15 15 15 15 15 15 14
6 7 7 7 7 8 7 6 7 8 8 8 7 7 8 7 6 5 5 4 5 4 5 3 2 1 1 2 3 5 6 7 8 12 13 13 13 13 13 13 13 13 13
7 7 7 8 9 9 8 8 9 9 9 9 9 9 9 7 8 6 6 6 5 5 4 4 2 1 1 3 4 5 5 6 7 11 12 12 12 12 12 12 12 11 11
8 8 8 9 9 9 9 9 9 10 10 10 10 10 10 9 9 8 8 7 6 5 4 4 3 1 1 3 4 4 6 5 6 9 11 11 11 12 12 11 11 10 10
8 9 9 9 10 10 10 10 10 10 10 10 10 10 11 10 11 10 9 9 8 6 5 5 4 3 2 3 4 5 5 4 5 6 8 9 11 12 11 11 11 11 10
9 9 9 10 10 9 10 10 10 11 10 11 10 10 11 13 14 12 9 9 9 7 6 6 5 4 3 4 5 4 6 6 4 4 6 5 6 6 7 9 10 10 11
9 9 10 11 11 10 12 14 12 10 10 11 11 10 11 13 14 15 17 15 13 11 9 7 6 6 6 5 5 6 6 6 5 5 5 4 4 5 5 6 9 11 11
9 10 10 11 12 13 15 16 17 12 11 11 11 10 10 11 11 10 13 16 16 16 14 10 9 8 7 7 7 8 8 8 5 8 7 5 4 4 4 6 10 11 11
9 10 11 11 11 13 15 15 16 12 11 12 12 12 12 12 11 10 10 11 12 13 14 11 9 9 8 7 8 8 8 6 5 7 6 5 5 4 4 5 9 11 11
10 10 10 11 12 13 14 14 13 9 9 12 11 12 12 13 13 13 11 11 11 10 11 13 11 10 10 10 8 7 8 8 6 5 4 5 5 4 4 3 6 10 11
10 10 11 11 11 12 13 14 12 7 9 9 9 10 13 14 14 14 12 11 12 10 9 10 9 9 9 9 10 9 9 9 6 5 6 6 6 5 4 3 4 6 8
Wind_Direction
235 234 237 242 248 249 248 250 245 241 239 238 236 238 242 242 239 234 234 237 236 232 230 228 223 218 214 210 208 206 205 204 202 200 199 198 197 195 194 194 192 192 190
232 233 238 244 252 252 251 251 251 243 242 238 239 237 240 243 243 239 236 237 239 236 232 230 227 224 219 216 213 210 208 207 205 203 203 202 202 200 199 199 198 198 197
222 225 237 253 262 261 260 260 261 251 247 244 243 241 239 241 243 242 240 239 238 238 235 231 227 225 222 221 218 214 211 209 208 205 205 204 204 203 203 202 202 202 203
221 215 226 254 268 271 265 261 258 257 253 250 250 247 243 241 241 240 239 238 236 239 238 235 231 227 224 224 222 217 214 211 210 209 207 206 206 206 206 206 205 206 207
197 176 206 251 268 263 260 266 257 249 260 261 257 251 246 243 242 242 238 237 235 237 238 237 234 229 225 225 224 221 217 213 212 212 211 210 209 208 208 208 208 208 209
194 186 221 261 260 257 263 256 257 251 252 262 268 263 254 249 243 239 241 241 237 236 236 236 233 229 226 225 226 224 220 217 215 215 214 213 212 211 210 210 211 211 211
228 221 234 253 247 245 255 262 262 268 263 251 263 274 264 247 241 240 238 238 237 235 232 231 229 226 225 226 225 223 220 220 219 218 216 214 213 212 211 211 212 213 213
256 239 232 245 244 251 265 259 242 263 271 246 241 277 290 283 249 240 235 235 237 234 231 231 225 221 221 222 224 222 221 221 221 219 218 215 213 212 211 211 213 214 215
282 266 252 244 243 232 250 253 235 226 256 270 237 243 264 270 296 268 239 238 236 232 231 226 224 221 219 221 224 222 221 221 222 221 219 215 214 213 212 212 213 214 216
293 284 269 253 246 235 242 251 235 223 229 256 266 245 247 260 271 297 288 250 244 237 232 231 229 223 219 218 219 217 217 218 220 221 220 216 214 213 212 213 215 215 217
293 291 283 270 258 247 245 247 243 231 223 231 239 257 264 260 244 253 277 276 258 242 236 231 229 224 221 218 216 216 214 216 217 218 218 216 214 213 212 214 217 218 219
300 297 290 277 270 261 253 248 241 237 231 233 236 238 244 254 253 248 258 275 273 260 247 237 228 224 219 215 215 213 211 214 215 214 214 213 212 212 212 214 217 219 221
289 292 294 284 275 266 262 254 247 247 238 235 235 234 235 245 249 256 261 268 273 276 263 245 231 224 222 212 214 213 211 210 210 209 209 208 208 209 210 213 215 218 221
269 278 283 282 281 279 275 260 252 252 247 243 246 239 236 242 240 242 252 259 277 271 259 259 249 223 228 211 209 204 206 201 201 200 201 201 202 203 206 209 213 216 219
271 274 278 281 283 282 277 270 260 259 252 246 248 247 244 245 240 240 244 241 244 260 260 263 267 266 236 216 201 194 193 188 186 186 187 189 192 195 199 202 206 209 212
271 278 279 277 278 278 276 269 264 261 256 254 247 245 247 246 240 238 237 235 228 236 249 268 281 302 255 148 144 165 170 163 169 171 173 176 180 185 190 192 196 199 200
275 273 274 276 276 274 272 266 263 263 258 259 255 246 247 244 240 237 234 233 228 223 243 262 260 298 239 148 125 127 131 137 143 148 154 160 167 173 178 181 184 187 189
275 272 274 275 274 273 266 261 264 265 258 258 257 250 250 246 238 236 230 230 229 222 226 251 256 248 223 171 151 134 127 126 125 132 138 144 150 157 162 165 169 174 179
279 279 274 272 272 272 270 265 260 261 258 256 254 250 250 243 240 234 228 228 228 226 219 233 246 225 214 166 153 133 127 120 119 124 123 128 135 140 144 148 152 159 167
277 277 276 273 272 272 271 268 263 260 259 257 254 251 249 242 239 234 229 227 223 221 217 221 228 224 209 178 166 158 150 138 130 122 116 117 121 122 128 133 138 144 150
278 275 277 277 273 270 266 261 258 259 256 257 255 253 252 248 242 235 229 221 215 215 213 215 217 216 209 190 185 172 163 146 131 136 131 127 124 120 120 124 129 135 141
281 279 276 276 275 271 266 263 262 261 257 255 256 254 254 257 254 244 235 222 209 207 207 208 211 215 215 207 194 179 166 163 166 156 145 139 136 130 124 125 130 133 136
282 282 279 276 274 271 268 268 268 264 257 253 251 250 254 252 244 243 239 230 219 213 203 200 209 213 210 206 195 191 183 178 167 159 150 146 141 135 124 121 131 133 135
282 282 282 279 276 275 270 266 268 266 259 253 247 244 246 251 246 238 238 233 225 220 214 210 213 213 211 205 203 198 182 156 129 154 153 148 149 140 129 123 132 135 136
286 283 281 280 278 277 272 267 265 265 258 255 249 244 241 244 240 230 231 230 227 225 220 212 208 209 206 201 195 187 176 168 165 168 162 142 143 132 129 130 127 133 137
284 286 284 281 276 276 274 270 266 258 257 256 253 247 239 237 234 225 224 222 223 220 210 205 207 209 210 207 197 199 189 182 168 168 168 147 146 147 141 133 135 137 133
Height
1542 1542 1542 1543 1543 1543 1544 1544 1544 1545 1545 1546 1547 1548 1549 1550 1550 1552 1553 1555 1557 1559 1561 1563 1565 1567 1569 1571 1573 1576 1578 1580 1583 1585 1588 1590 1592 1594 1597 1599 1601 1603 1605
1539 1539 1539 1539 1539 1540 1540 1540 1540 1541 1541 1541 1542 1543 1543 1544 1545 1546 1548 1550 1552 1554 1556 1558 1560 1563 1565 1567 1570 1572 1574 1577 1580 1583 1585 1587 1590 1592 1595 1597 1599 1602 1604
1535 1535 1535 1535 1535 1536 1536 1535 1536 1536 1536 1536 1536 1537 1538 1539 1539 1540 1542 1544 1546 1548 1551 1553 1555 1558 1560 1563 1566 1568 1570 1573 1576 1579 1582 1585 1587 1590 1592 1595 1597 1599 1602
1532 1532 1531 1531 1532 1531 1531 1531 1531 1530 1530 1530 1530 1531 1532 1532 1533 1534 1536 1538 1540 1542 1545 1547 1550 1553 1555 1558 1560 1563 1566 1569 1572 1575 1578 1581 1584 1587 1589 1592 1595 1597 1599
1529 1529 1528 1528 1528 1527 1527 1526 1526 1525 1525 1525 1525 1525 1525 1526 1527 1528 1529 1531 1533 1536 1538 1541 1544 1547 1549 1552 1555 1558 1561 1564 1567 1570 1574 1577 1580 1583 1586 1589 1592 1594 1597
1527 1526 1526 1525 1525 1524 1523 1522 1521 1521 1520 1520 1519 1518 1519 1519 1520 1521 1522 1524 1526 1528 1531 1534 1537 1540 1543 1546 1549 1552 1555 1558 1562 1565 1569 1572 1576 1579 1582 1585 1588 1591 1593
1524 1523 1523 1522 1521 1521 1520 1518 1517 1516 1516 1515 1514 1513 1512 1513 1513 1514 1515 1517 1519 1521 1524 1526 1530 1533 1536 1539 1543 1546 1549 1552 1556 1560 1563 1567 1571 1574 1577 1581 1584 1587 1590
1521 1520 1520 1519 1518 1517 1516 1515 1514 1513 1512 1511 1511 1509 1508 1508 1507 1507 1508 1509 1511 1514 1516 1519 1523 1526 1529 1533 1536 1539 1542 1546 1550 1553 1557 1561 1565 1569 1573 1576 1579 1582 1585
1518 1517 1516 1515 1515 1514 1513 1512 1511 1510 1509 1508 1508 1507 1506 1504 1502 1502 1502 1503 1504 1507 1509 1512 1515 1519 1522 1526 1529 1533 1536 1540 1543 1547 1551 1555 1559 1563 1567 1571 1574 1577 1581
1514 1513 1512 1512 1511 1510 1509 1509 1508 1507 1506 1505 1505 1504 1504 1502 1501 1499 1498 1498 1499 1501 1503 1506 1509 1512 1516 1519 1522 1526 1530 1533 1537 1541 1545 1549 1553 1557 1561 1565 1569 1572 1575
1510 1509 1509 1508 1507 1506 1505 1505 1504 1504 1503 1502 1501 1500 1500 1499 1498 1497 1495 1494 1495 1496 1498 1500 1503 1506 1509 1513 1516 1519 1523 1527 1531 1535 1539 1543 1547 1551 1555 1559 1563 1566 1570
1506 1505 1504 1503 1502 1501 1501 1500 1500 1499 1499 1498 1498 1497 1496 1496 1495 1494 1492 1491 1491 1492 1493 1495 1497 1500 1503 1507 1510 1514 1518 1522 1525 1530 1534 1537 1541 1545 1549 1553 1557 1560 1564
1501 1500 1499 1498 1497 1497 1496 1495 1495 1495 1494 1494 1493 1493 1493 1492 1492 1491 1490 1489 1488 1488 1489 1490 1492 1495 1498 1501 1505 1509 1512 1516 1520 1524 1528 1532 1535 1539 1543 1547 1551 1555 1558
1496 1495 1494 1493 1492 1491 1491 1490 1489 1489 1489 1489 1489 1489 1489 1488 1488 1488 1487 1486 1485 1485 1485 1486 1488 1490 1493 1496 1500 1503 1507 1511 1515 1519 1522 1526 1530 1534 1538 1541 1545 1549 1552
1491 1490 1489 1487 1487 1486 1485 1484 1483 1483 1483 1483 1483 1484 1484 1484 1484 1483 1483 1483 1484 1482 1481 1482 1484 1486 1488 1491 1495 1498 1502 1506 1510 1514 1518 1521 1525 1529 1532 1536 1539 1543 1546
1486 1485 1483 1482 1481 1480 1479 1478 1477 1477 1477 1477 1477 1478 1478 1479 1479 1479 1479 1479 1479 1479 1478 1479 1480 1482 1485 1487 1490 1494 1498 1502 1506 1509 1513 1517 1520 1524 1528 1531 1534 1537 1541
1481 1479 1478 1476 1475 1474 1473 1472 1471 1471 1470 1470 1471 1471 1472 1473 1473 1474 1474 1475 1475 1475 1475 1475 1477 1478 1480 1483 1486 1489 1493 1497 1501 1505 1509 1512 1516 1520 1523 1526 1529 1533 1536
1476 1474 1472 1471 1469 1468 1466 1465 1464 1464 1463 1463 1464 1464 1465 1466 1467 1468 1469 1470 1470 1470 1471 1471 1473 1474 1476 1479 1482 1485 1489 1493 1497 1501 1505 1508 1512 1515 1518 1522 1525 1528 1531
1471 1469 1466 1465 1463 1461 1460 1459 1458 1457 1457 1457 1457 1457 1458 1459 1460 1462 1463 1464 1465 1466 1466 1467 1469 1471 1473 1476 1478 1481 1485 1489 1493 1497 1500 1504 1508 1511 1514 1517 1520 1524 1527
1465 1463 1460 1458 1456 1455 1453 1452 1451 1450 1450 1449 1450 1450 1451 1452 1453 1455 1456 1458 1460 1461 1462 1463 1465 1467 1469 1472 1474 1477 1481 1485 1489 1493 1496 1500 1504 1507 1510 1513 1517 1520 1523
1459 1457 1454 1452 1450 1448 1446 1445 1444 1443 1442 1442 1442 1443 1443 1444 1445 1447 1449 1451 1454 1455 1457 1458 1460 1462 1465 1467 1470 1473 1477 1481 1485 1488 1492 1496 1500 1503 1506 1510 1513 1516 1519
1453 1451 1448 1446 1443 1441 1440 1438 1437 1436 1435 1434 1434 1435 1436 1437 1438 1440 1442 1444 1447 1449 1451 1453 1455 1457 1459 1463 1466 1469 1472 1476 1480 1485 1489 1493 1496 1500 1503 1506 1509 1513 1516
1448 1445 1442 1440 1437 1435 1433 1431 1430 1428 1427 1426 1426 1427 1428 1429 1430 1432 1434 1437 1440 1442 1446 1448 1450 1452 1455 1458 1461 1465 1468 1471 1475 1479 1485 1489 1493 1496 1500 1503 1506 1509 1513
1442 1439 1436 1433 1430 1428 1426 1424 1423 1421 1419 1419 1419 1419 1420 1421 1423 1425 1427 1429 1432 1435 1439 1442 1445 1447 1451 1453 1456 1460 1463 1467 1472 1476 1481 1485 1489 1493 1496 1500 1503 1506 1510
1437 1434 1430 1427 1424 1421 1419 1417 1416 1413 1412 1411 1411 1412 1412 1413 1415 1417 1420 1422 1425 1428 1433 1436 1440 1443 1446 1448 1451 1455 1458 1462 1466 1471 1475 1480 1485 1489 1493 1496 1500 1504 1507
1431 1428 1425 1421 1418 1415 1413 1411 1409 1406 1405 1404 1404 1404 1405 1405 1407 1410 1412 1415 1418 1422 1426 1430 1434 1437 1441 1443 1446 1449 1453 1457 1461 1465 1470 1475 1480 1484 1489 1493 1497 1500 1504